Location: Brompton
(51.4000°N, 0.5333°E)
Time: 11:40:12
(UTC+00:00)

Cosmos 1898 Rocket - Pass Details

Date: 30 September 2021
Orbit: 752 x 784 km, 74.0° (Epoch: 17 October)

Event Time Altitude Azimuth Distance (km) Brightness Sun altitude
Rises 03:31:29 0° 339° (NNW) 3,268 6.8 -22.9°
Reaches altitude 10° 03:34:29 10° 356° (N) 2,342 6.3 -22.4°
Maximum altitude 03:38:25 21° 44° (NE) 1,726 6.1 -21.9°
Drops below altitude 10° 03:42:22 10° 92° (E) 2,343 6.9 -21.3°
Sets 03:45:22 0° 109° (ESE) 3,270 7.5 -20.9°
